When you browse on this site, cookies collect data to enhance your experience and personalize the content and advertising you see.
Visit our Privacy Policy to learn more. By continuing to use the site, you agree to this use of cookies and data.
  • In Lithuania
  • List of Countries
  • For 7 days
  • Water Temperature
  • Satellite Maps
  • Weather Map
  • Weather Widgets
  • user-avatar
    Login

    Hourly Weather Canillo

    Today, 22 April, Monday

    Time Temperature Precipitation Wind Pressure Humidity
    00:00 +3°C° 0 mm 1 mps 610 mmHg 81%
    01:00 +3°C° 0 mm 1 mps 610 mmHg 82%
    02:00 +3°C° 0 mm 1 mps 609 mmHg 83%
    03:00 +3°C° 0 mm 1 mps 609 mmHg 83%
    04:00 +3°C° 0.2 mm 1 mps 609 mmHg 84%
    05:00 +4°C° 0.2 mm 1 mps 608 mmHg 85%
    06:00 +4°C° 0.2 mm 1 mps 608 mmHg 86%
    07:00 +6°C° 0 mm 1 mps 609 mmHg 80%
    08:00 +8°C° 0 mm 1 mps 610 mmHg 74%
    09:00 +9°C° 0 mm 1 mps 610 mmHg 69%
    10:00 +10°C° 0 mm 1 mps 610 mmHg 66%
    11:00 +11°C° 0 mm 1 mps 610 mmHg 63%
    12:00 +12°C° 0 mm 1 mps 611 mmHg 61%
    13:00 +12°C° 0.4 mm 1 mps 610 mmHg 61%
    14:00 +12°C° 0.4 mm 1 mps 610 mmHg 61%
    15:00 +12°C° 0.4 mm 1 mps 609 mmHg 61%
    16:00 +11°C° 0.9 mm 1 mps 609 mmHg 67%
    17:00 +10°C° 0.9 mm 1 mps 608 mmHg 73%
    18:00 +9°C° 0.9 mm 1 mps 607 mmHg 79%
    19:00 +8°C° 0.4 mm 1 mps 607 mmHg 84%
    20:00 +7°C° 0.4 mm 1 mps 607 mmHg 88%
    21:00 +6°C° 0.4 mm 1 mps 606 mmHg 93%
    22:00 +6°C° 0.3 mm 1 mps 606 mmHg 93%
    23:00 +6°C° 0.3 mm 1 mps 606 mmHg 94%

    Tomorrow, 23 April, Tuesday

    Time Temperature Precipitation Wind Pressure Humidity
    00:00 +5°C° 0.3 mm 1 mps 606 mmHg 94%
    01:00 +5°C° 0.4 mm 1 mps 605 mmHg 94%
    02:00 +5°C° 0.4 mm 1 mps 605 mmHg 94%
    03:00 +5°C° 0.4 mm 1 mps 604 mmHg 94%
    04:00 +4°C° 0.4 mm 2 mps 604 mmHg 93%
    05:00 +4°C° 0.4 mm 2 mps 604 mmHg 91%
    06:00 +4°C° 0.4 mm 2 mps 604 mmHg 90%
    07:00 +6°C° 0.1 mm 2 mps 605 mmHg 84%
    08:00 +7°C° 0.1 mm 2 mps 606 mmHg 77%
    09:00 +8°C° 0.1 mm 2 mps 606 mmHg 71%
    10:00 +9°C° 0.3 mm 3 mps 607 mmHg 68%
    11:00 +10°C° 0.3 mm 3 mps 607 mmHg 66%
    12:00 +10°C° 0.3 mm 3 mps 607 mmHg 63%
    13:00 +10°C° 0.2 mm 3 mps 607 mmHg 63%
    14:00 +10°C° 0.2 mm 4 mps 607 mmHg 62%
    15:00 +10°C° 0.2 mm 4 mps 606 mmHg 62%
    16:00 +9°C° 0.3 mm 3 mps 606 mmHg 70%
    17:00 +7°C° 0.3 mm 3 mps 606 mmHg 77%
    18:00 +5°C° 0.3 mm 3 mps 605 mmHg 85%
    19:00 +4°C° 0.2 mm 3 mps 605 mmHg 88%
    20:00 +4°C° 0.2 mm 2 mps 606 mmHg 90%
    21:00 +4°C° 0.2 mm 2 mps 606 mmHg 93%
    22:00 +3°C° 0.1 mm 2 mps 606 mmHg 93%
    23:00 +3°C° 0.1 mm 2 mps 606 mmHg 94%

    Day after tomorrow, 24 April, Wednesday

    Time Temperature Precipitation Wind Pressure Humidity
    00:00 +2°C° 0.1 mm 2 mps 606 mmHg 94%
    01:00 +1°C° 0 mm 2 mps 606 mmHg 93%
    02:00 -1°C° 0 mm 2 mps 606 mmHg 93%
    03:00 -2°C° 0 mm 2 mps 606 mmHg 92%
    04:00 -2°C° 0 mm 2 mps 606 mmHg 88%
    05:00 -2°C° 0 mm 3 mps 607 mmHg 84%
    06:00 -2°C° 0 mm 3 mps 607 mmHg 81%
    07:00 -2°C° 0.1 mm 4 mps 608 mmHg 76%
    08:00 -1°C° 0.1 mm 4 mps 608 mmHg 71%
    09:00 0°C° 0.1 mm 5 mps 609 mmHg 66%
    10:00 +1°C° 0 mm 5 mps 610 mmHg 61%
    11:00 +2°C° 0 mm 5 mps 610 mmHg 56%
    12:00 +5°C° 0 mm 5 mps 611 mmHg 50%
    13:00 +5°C° 0 mm 5 mps 611 mmHg 50%
    14:00 +6°C° 0 mm 5 mps 611 mmHg 50%
    15:00 +6°C° 0 mm 5 mps 611 mmHg 49%
    16:00 +5°C° 0 mm 5 mps 611 mmHg 54%
    17:00 +4°C° 0 mm 4 mps 611 mmHg 59%
    18:00 +3°C° 0 mm 4 mps 610 mmHg 63%
    19:00 +1°C° 0 mm 4 mps 610 mmHg 71%
    20:00 +1°C° 0 mm 4 mps 610 mmHg 79%
    21:00 0°C° 0 mm 5 mps 610 mmHg 87%
    22:00 0°C° 0.2 mm 5 mps 610 mmHg 87%
    23:00 +1°C° 0.2 mm 6 mps 611 mmHg 87%

    25 April, Thursday

    Time Temperature Precipitation Wind Pressure Humidity
    00:00 +1°C° 0.2 mm 6 mps 611 mmHg 87%
    01:00 +1°C° 0.1 mm 6 mps 611 mmHg 88%
    02:00 +1°C° 0.1 mm 6 mps 611 mmHg 88%
    03:00 +1°C° 0.1 mm 5 mps 611 mmHg 89%
    04:00 +1°C° 0.3 mm 5 mps 611 mmHg 89%
    05:00 +1°C° 0.3 mm 4 mps 612 mmHg 90%
    06:00 +1°C° 0.3 mm 4 mps 612 mmHg 90%
    07:00 +3°C° 0.3 mm 4 mps 612 mmHg 88%
    08:00 +3°C° 0.3 mm 4 mps 613 mmHg 86%
    09:00 +4°C° 0.3 mm 4 mps 614 mmHg 84%
    10:00 +4°C° 0.2 mm 4 mps 614 mmHg 82%
    11:00 +5°C° 0.2 mm 5 mps 614 mmHg 80%
    12:00 +5°C° 0.2 mm 5 mps 614 mmHg 78%
    13:00 +5°C° 0.1 mm 5 mps 614 mmHg 76%
    14:00 +5°C° 0.1 mm 5 mps 614 mmHg 74%
    15:00 +5°C° 0.1 mm 4 mps 614 mmHg 72%
    16:00 +5°C° 0.1 mm 4 mps 614 mmHg 75%
    17:00 +4°C° 0.1 mm 3 mps 614 mmHg 78%
    18:00 +4°C° 0.1 mm 2 mps 614 mmHg 81%
    19:00 +3°C° 0.1 mm 2 mps 614 mmHg 84%
    20:00 +2°C° 0.1 mm 1 mps 614 mmHg 88%
    21:00 +1°C° 0.1 mm 1 mps 615 mmHg 92%
    22:00 +1°C° 0.1 mm 1 mps 615 mmHg 90%
    23:00 +1°C° 0.1 mm 1 mps 615 mmHg 89%

    26 April, Friday

    Time Temperature Precipitation Wind Pressure Humidity
    00:00 0°C° 0.1 mm 0 mps 616 mmHg 87%
    01:00 0°C° 0.2 mm 1 mps 616 mmHg 89%
    02:00 0°C° 0.2 mm 1 mps 616 mmHg 92%
    03:00 -2°C° 0.2 mm 2 mps 616 mmHg 94%
    04:00 -2°C° 0.1 mm 2 mps 617 mmHg 93%
    05:00 -1°C° 0.1 mm 2 mps 617 mmHg 91%
    06:00 -1°C° 0.1 mm 2 mps 618 mmHg 90%
    07:00 +2°C° 0 mm 1 mps 619 mmHg 83%
    08:00 +4°C° 0 mm 1 mps 620 mmHg 76%
    09:00 +5°C° 0 mm 1 mps 621 mmHg 69%
    10:00 +6°C° 0 mm 1 mps 622 mmHg 64%
    11:00 +7°C° 0 mm 1 mps 622 mmHg 59%
    12:00 +7°C° 0 mm 2 mps 623 mmHg 55%
    13:00 +7°C° 0 mm 2 mps 623 mmHg 54%
    14:00 +7°C° 0 mm 2 mps 623 mmHg 54%
    15:00 +8°C° 0 mm 2 mps 623 mmHg 54%
    16:00 +7°C° 0 mm 2 mps 623 mmHg 61%
    17:00 +5°C° 0 mm 2 mps 622 mmHg 68%
    18:00 +4°C° 0 mm 2 mps 622 mmHg 75%
    19:00 +3°C° 0 mm 2 mps 622 mmHg 81%
    20:00 +2°C° 0 mm 2 mps 622 mmHg 87%
    21:00 +1°C° 0 mm 1 mps 622 mmHg 94%
    22:00 +1°C° 0 mm 1 mps 622 mmHg 91%
    23:00 +1°C° 0 mm 1 mps 622 mmHg 88%

    27 April, Saturday

    Time Temperature Precipitation Wind Pressure Humidity
    00:00 0°C° 0 mm 1 mps 622 mmHg 85%
    01:00 0°C° 0 mm 1 mps 622 mmHg 79%
    02:00 +1°C° 0 mm 1 mps 622 mmHg 72%
    03:00 -1°C° 0 mm 2 mps 622 mmHg 65%
    04:00 +1°C° 0 mm 2 mps 623 mmHg 64%
    05:00 +1°C° 0 mm 2 mps 623 mmHg 62%
    06:00 +2°C° 0 mm 2 mps 624 mmHg 60%
    07:00 +6°C° 0 mm 1 mps 625 mmHg 58%
    08:00 +8°C° 0 mm 1 mps 626 mmHg 55%
    09:00 +11°C° 0 mm 1 mps 627 mmHg 52%
    10:00 +12°C° 0 mm 1 mps 627 mmHg 50%
    11:00 +14°C° 0 mm 1 mps 627 mmHg 48%
    12:00 +15°C° 0 mm 1 mps 628 mmHg 47%
    13:00 +14°C° 0 mm 1 mps 627 mmHg 50%
    14:00 +14°C° 0 mm 1 mps 626 mmHg 53%
    15:00 +13°C° 0 mm 1 mps 626 mmHg 57%
    16:00 +12°C° 0 mm 1 mps 625 mmHg 63%
    17:00 +11°C° 0 mm 1 mps 625 mmHg 70%
    18:00 +10°C° 0 mm 1 mps 624 mmHg 77%
    19:00 +8°C° 0 mm 1 mps 624 mmHg 82%
    20:00 +7°C° 0 mm 1 mps 624 mmHg 87%
    21:00 +5°C° 0 mm 1 mps 624 mmHg 91%
    22:00 +5°C° 0 mm 1 mps 623 mmHg 91%
    23:00 +5°C° 0 mm 1 mps 623 mmHg 90%
    Show more